Location: Dealu Mare
(46.0500°N, 22.8167°E)
Time: 22:21:53
(UTC+00:00)

COSMO-SKYMED 1 - Pass Details

Date: 15 January 2026
Orbit: 578 x 579 km, 97.9° (Epoch: 11 February)

Event Time Altitude Azimuth Distance (km) Brightness Sun altitude
Rises 04:06:26 0° 172° (S) 2,785 6.1 -20.4°
Reaches altitude 10° 04:08:35 10° 175° (S) 1,890 5.2 -20.0°
Maximum altitude 04:12:39 67° 258° (WSW) 634 2.3 -19.3°
Enters shadow 04:14:30 31° 332° (NNW) 1,028 3.3 -19.0°
